星链-6347 (STARLINK-6347 )

导读

STARLINK-6347是美国太空探索技术公司(SpaceX)于2023年7月16日发射的星链低轨互联网通信卫星,隶属于第二代星链星座,旨在构建覆盖全球的卫星互联网。星链计划通过批量发射低轨卫星组建卫星星座,为全球用户提供高速宽带服务,STARLINK-6347的发射进一步扩大了星链星座规模,提升了星座服务覆盖能力与容量。

基本信息
目录编号:
57359
目录名称:
STARLINK-6347
国际标识:
2023-099AH
轨道中心:
EARTH
卫星名称:
星链-6347
卫星全名:
星链-6347 (STARLINK-6347 )
卫星状态:
在轨 (已飞行1064 天)
发射日期:
2023-07-16 UTC
国别 :
美国 (US)
星等 :
--
轨道信息
数据来源 国际轨道数据
星历时间: 2026-06-14T07:25:08+0800
21小时前
查看轨道信息
半长轴: 6861.18km
偏心率: 0.0001799
轨道倾角: 43.004°
近地点辐角 277.988°
升交点赤经 58.031°
平近点角 82.077°
近地点: 481.808km
远地点: 484.278km
周期: 94.267分钟
每日圈数: 15.275822
详细信息
固有亮度:
5
最大亮度:
2.5
卫星平台:
Starlink v1.5
覆盖范围:
全球
运营商:
太空探索技术公司
运营商所在国:
美国
制造商(研发单位):
太空探索技术公司
制造商所在国:
美国
使用方式:
暂无
卫星简介
星链(Starlink)计划是由太空探索技术公司(SpaceX)提出的一个巨型低轨卫星互联网星座项目,计划在2019年至2024年间在太空搭建由约1.2万颗卫星组成的“星链”网络,其中1584颗将部署在地球上空550千米处的近地轨道,并从2020年开始工作。该卫星仍在工作。
2D轨道图
3D轨道图
轨道高度分析图
轨道倾角分析图
轨道综合分析图
查看轨道综合分析图